Temp
-16 -16 -16 -16 -17 -17 -17 -17 -17 -17 -17 -17 -17 -17 -17 -16 -16 -16 -16 -16 -16 -16 -16 -16 -16 -16 -16 -16 -16 -16 -16 -16 -16 -15 -15 -15 -15 -15 -15 -15 -15 -15
-17 -17 -16 -17 -17 -17 -17 -17 -17 -17 -17 -17 -17 -17 -17 -17 -17 -16 -16 -16 -16 -16 -16 -16 -16 -16 -16 -16 -16 -16 -16 -16 -16 -16 -16 -16 -16 -15 -15 -15 -15 -15
-17 -16 -16 -17 -17 -17 -17 -17 -17 -17 -17 -17 -17 -17 -17 -17 -17 -17 -17 -17 -17 -17 -16 -16 -16 -16 -16 -16 -16 -16 -16 -16 -16 -16 -16 -16 -16 -16 -16 -16 -16 -16
-17 -17 -17 -17 -17 -17 -17 -17 -18 -17 -17 -17 -17 -17 -17 -17 -17 -17 -17 -17 -17 -17 -17 -17 -17 -17 -17 -17 -17 -17 -17 -17 -17 -17 -17 -16 -16 -16 -16 -16 -16 -16
-17 -17 -17 -17 -17 -17 -17 -17 -18 -18 -18 -18 -17 -17 -17 -17 -17 -17 -17 -17 -17 -17 -17 -17 -17 -17 -17 -17 -17 -17 -17 -17 -17 -17 -17 -17 -17 -17 -17 -17 -16 -16
-17 -17 -17 -17 -17 -17 -17 -17 -17 -17 -17 -18 -18 -18 -17 -17 -17 -17 -17 -17 -17 -17 -17 -17 -17 -17 -17 -17 -17 -17 -17 -17 -17 -17 -17 -17 -17 -17 -17 -17 -17 -17
-17 -17 -17 -17 -17 -17 -17 -17 -17 -17 -17 -18 -18 -18 -17 -17 -17 -17 -17 -17 -17 -17 -17 -18 -18 -18 -18 -17 -17 -17 -17 -17 -17 -17 -17 -17 -17 -17 -17 -17 -17 -17
-17 -17 -17 -17 -17 -17 -17 -17 -18 -18 -18 -18 -18 -17 -17 -17 -17 -17 -17 -17 -17 -17 -17 -17 -18 -18 -18 -18 -18 -18 -17 -17 -17 -17 -17 -17 -17 -17 -17 -17 -17 -17
-18 -18 -18 -18 -18 -18 -18 -18 -18 -18 -18 -18 -17 -17 -17 -17 -18 -18 -18 -18 -18 -18 -17 -17 -17 -17 -18 -18 -18 -18 -18 -18 -18 -18 -18 -18 -17 -17 -17 -17 -17 -17
-18 -18 -18 -17 -18 -18 -18 -18 -18 -18 -18 -18 -18 -17 -17 -18 -18 -18 -18 -18 -18 -18 -18 -17 -17 -17 -17 -18 -18 -18 -18 -18 -18 -18 -18 -18 -18 -18 -18 -17 -17 -17
-18 -18 -18 -18 -18 -18 -18 -18 -18 -18 -18 -18 -18 -18 -18 -18 -18 -18 -18 -18 -18 -18 -18 -17 -17 -17 -17 -18 -18 -18 -18 -18 -18 -18 -18 -18 -18 -18 -18 -18 -18 -18
-18 -18 -18 -18 -18 -18 -18 -18 -18 -18 -18 -18 -18 -18 -18 -18 -18 -18 -18 -18 -18 -18 -18 -18 -18 -18 -18 -18 -18 -18 -18 -18 -18 -18 -18 -18 -18 -18 -18 -18 -18 -18
-18 -18 -18 -18 -18 -18 -18 -18 -18 -18 -18 -18 -18 -18 -19 -19 -19 -18 -18 -18 -18 -18 -18 -18 -18 -18 -18 -19 -18 -18 -18 -19 -19 -19 -19 -18 -18 -18 -18 -19 -19 -18
-18 -18 -18 -19 -18 -18 -18 -18 -18 -18 -19 -19 -19 -19 -19 -19 -19 -19 -19 -19 -19 -19 -19 -19 -19 -19 -19 -19 -19 -19 -19 -19 -19 -19 -19 -19 -19 -19 -19 -19 -19 -19
-19 -19 -19 -19 -19 -19 -19 -19 -19 -19 -19 -19 -19 -19 -19 -19 -19 -19 -19 -19 -19 -19 -19 -19 -19 -19 -19 -19 -19 -19 -19 -19 -19 -19 -19 -19 -19 -19 -19 -19 -19 -19
-19 -19 -19 -19 -19 -19 -19 -19 -19 -19 -19 -19 -19 -19 -19 -19 -19 -19 -19 -19 -20 -20 -20 -20 -20 -20 -19 -19 -19 -19 -19 -19 -19 -19 -19 -19 -19 -19 -19 -19 -19 -19
-19 -19 -18 -19 -19 -19 -19 -19 -19 -19 -19 -19 -19 -19 -19 -19 -19 -19 -19 -19 -19 -20 -20 -20 -20 -20 -20 -20 -20 -20 -20 -20 -19 -19 -19 -19 -19 -19 -19 -19 -19 -19
-19 -19 -19 -19 -19 -19 -19 -19 -19 -19 -19 -19 -19 -19 -19 -19 -19 -19 -19 -19 -19 -20 -20 -20 -20 -20 -20 -20 -20 -20 -20 -20 -20 -20 -20 -20 -19 -19 -19 -19 -19 -19
-20 -20 -19 -19 -20 -20 -20 -19 -19 -19 -19 -19 -19 -19 -19 -19 -19 -19 -19 -19 -19 -20 -20 -20 -20 -20 -20 -20 -20 -20 -20 -20 -20 -20 -20 -20 -20 -20 -20 -20 -20 -19
-20 -20 -20 -20 -20 -20 -20 -20 -20 -20 -20 -20 -20 -20 -20 -20 -20 -20 -20 -20 -20 -20 -20 -20 -20 -20 -20 -20 -20 -20 -20 -20 -20 -20 -20 -20 -20 -20 -20 -20 -20 -20
-21 -21 -21 -21 -21 -21 -21 -20 -20 -20 -20 -20 -20 -20 -20 -20 -20 -20 -20 -20 -20 -21 -21 -21 -21 -20 -20 -20 -20 -20 -20 -20 -20 -20 -20 -20 -20 -20 -20 -20 -20 -20
-21 -21 -21 -21 -21 -21 -21 -21 -21 -21 -21 -20 -20 -20 -20 -20 -21 -21 -21 -21 -21 -21 -21 -21 -21 -21 -21 -21 -20 -20 -20 -20 -20 -20 -20 -20 -20 -20 -20 -20 -20 -20
-21 -21 -21 -21 -21 -21 -21 -21 -21 -21 -21 -21 -21 -21 -21 -21 -21 -21 -21 -21 -21 -21 -21 -21 -21 -21 -21 -21 -21 -21 -20 -20 -20 -20 -21 -21 -21 -21 -21 -21 -21 -21
-22 -22 -21 -21 -21 -21 -21 -21 -21 -21 -21 -21 -21 -21 -21 -21 -21 -21 -21 -21 -21 -21 -21 -21 -21 -21 -21 -21 -21 -21 -21 -21 -21 -21 -21 -21 -21 -21 -21 -21 -21 -21
-22 -22 -22 -21 -21 -21 -21 -21 -22 -22 -22 -22 -22 -21 -21 -21 -21 -21 -21 -21 -21 -21 -22 -21 -21 -21 -21 -21 -21 -21 -21 -21 -21 -21 -21 -21 -21 -21 -21 -21 -21 -21
-22 -22 -22 -22 -22 -22 -22 -22 -22 -22 -22 -22 -22 -22 -22 -22 -22 -22 -22 -22 -22 -22 -22 -22 -22 -21 -21 -21 -21 -21 -21 -21 -21 -21 -21 -21 -21 -21 -22 -22 -22 -22
Height
5745 5745 5746 5747 5747 5747 5747 5747 5746 5745 5744 5744 5744 5744 5745 5745 5746 5746 5747 5747 5747 5747 5747 5747 5747 5748 5748 5748 5749 5749 5749 5749 5749 5749 5748 5748 5748 5748 5748 5748 5748 5748
5743 5743 5743 5743 5744 5745 5745 5744 5744 5743 5742 5742 5742 5742 5743 5743 5744 5744 5745 5745 5745 5744 5744 5744 5745 5745 5745 5746 5746 5747 5748 5748 5748 5748 5747 5747 5746 5746 5746 5746 5746 5746
5740 5740 5739 5740 5741 5742 5742 5742 5741 5740 5740 5740 5740 5740 5741 5741 5742 5742 5742 5742 5742 5742 5742 5742 5742 5742 5743 5743 5744 5744 5745 5746 5746 5746 5746 5746 5745 5745 5744 5744 5744 5744
5737 5737 5737 5737 5738 5738 5738 5739 5739 5738 5738 5738 5738 5738 5739 5740 5740 5740 5740 5740 5740 5740 5740 5740 5740 5740 5741 5741 5741 5741 5742 5742 5743 5743 5744 5744 5744 5744 5743 5743 5742 5742
5735 5735 5735 5734 5734 5735 5735 5736 5736 5736 5736 5736 5736 5736 5737 5737 5738 5738 5738 5738 5738 5738 5738 5738 5738 5739 5739 5739 5739 5739 5740 5740 5740 5741 5741 5741 5742 5742 5742 5742 5741 5741
5732 5732 5732 5732 5732 5732 5733 5733 5733 5733 5733 5734 5735 5735 5735 5736 5736 5736 5737 5737 5736 5736 5736 5736 5736 5737 5737 5737 5737 5738 5738 5738 5739 5739 5739 5739 5739 5740 5740 5740 5740 5740
5729 5730 5730 5729 5729 5730 5730 5731 5731 5731 5731 5732 5732 5733 5733 5733 5733 5734 5734 5734 5734 5734 5734 5734 5734 5735 5735 5735 5736 5736 5736 5737 5737 5737 5737 5738 5738 5738 5738 5738 5738 5738
5727 5727 5727 5727 5727 5727 5728 5728 5729 5729 5729 5730 5730 5730 5730 5730 5730 5731 5731 5731 5731 5731 5732 5732 5732 5733 5733 5733 5734 5734 5734 5735 5735 5735 5735 5735 5735 5736 5736 5736 5736 5736
5726 5725 5725 5725 5725 5725 5726 5726 5727 5727 5727 5728 5728 5728 5728 5727 5727 5728 5728 5728 5729 5729 5729 5729 5730 5731 5731 5731 5732 5732 5732 5732 5733 5733 5733 5733 5733 5733 5733 5734 5734 5734
5724 5723 5723 5722 5722 5723 5723 5724 5724 5725 5725 5725 5726 5726 5726 5725 5725 5726 5726 5726 5726 5726 5726 5726 5727 5728 5728 5729 5729 5729 5730 5730 5730 5730 5730 5730 5730 5731 5731 5731 5731 5731
5721 5721 5721 5720 5720 5720 5721 5721 5721 5722 5722 5723 5723 5723 5723 5723 5723 5723 5723 5723 5722 5723 5723 5723 5724 5725 5725 5725 5725 5726 5726 5727 5727 5727 5728 5728 5728 5728 5728 5728 5728 5728
5716 5716 5717 5717 5717 5717 5718 5718 5719 5719 5719 5720 5721 5721 5720 5720 5720 5720 5721 5721 5721 5721 5721 5721 5721 5721 5720 5721 5722 5723 5723 5724 5724 5724 5725 5725 5725 5725 5725 5725 5725 5725
5711 5712 5712 5713 5714 5714 5715 5715 5715 5715 5715 5716 5717 5717 5717 5717 5717 5717 5717 5718 5718 5718 5718 5718 5717 5716 5717 5718 5719 5719 5719 5720 5721 5721 5721 5721 5722 5722 5722 5722 5722 5722
5708 5708 5708 5709 5710 5711 5711 5711 5712 5711 5711 5712 5713 5713 5713 5713 5713 5713 5714 5714 5714 5713 5714 5714 5714 5713 5714 5715 5716 5716 5717 5717 5717 5717 5717 5717 5718 5718 5718 5718 5718 5718
5704 5704 5704 5705 5706 5706 5707 5707 5708 5708 5708 5708 5708 5708 5708 5708 5708 5708 5709 5709 5709 5708 5709 5710 5711 5711 5711 5712 5712 5713 5713 5713 5713 5713 5713 5713 5713 5714 5714 5714 5714 5714
5699 5700 5701 5700 5701 5701 5702 5703 5703 5703 5703 5703 5702 5702 5703 5703 5703 5703 5704 5704 5704 5704 5705 5705 5706 5707 5707 5707 5707 5708 5708 5708 5708 5708 5708 5708 5709 5709 5709 5709 5709 5709
5693 5694 5695 5695 5695 5695 5696 5696 5697 5697 5697 5697 5697 5697 5698 5698 5698 5699 5699 5699 5699 5699 5699 5699 5700 5700 5701 5701 5701 5701 5702 5702 5703 5703 5703 5703 5703 5704 5704 5704 5704 5704
5687 5688 5689 5689 5689 5689 5690 5690 5691 5691 5691 5692 5692 5693 5693 5693 5693 5693 5693 5692 5692 5692 5692 5692 5693 5694 5694 5695 5695 5696 5696 5696 5697 5697 5698 5698 5698 5698 5698 5698 5698 5698
5681 5682 5683 5684 5684 5685 5685 5685 5685 5686 5686 5686 5687 5687 5687 5687 5687 5687 5687 5686 5686 5685 5685 5686 5686 5687 5688 5689 5689 5690 5690 5691 5691 5691 5692 5692 5692 5692 5692 5692 5692 5692
5676 5677 5677 5678 5679 5679 5680 5680 5680 5680 5680 5680 5680 5680 5681 5681 5681 5681 5681 5681 5680 5680 5680 5680 5680 5681 5681 5682 5682 5683 5684 5684 5685 5685 5686 5686 5686 5686 5686 5686 5686 5686
5670 5671 5671 5672 5673 5673 5674 5674 5675 5675 5675 5675 5674 5674 5675 5674 5674 5674 5674 5675 5675 5675 5675 5675 5675 5675 5675 5675 5675 5676 5676 5677 5678 5678 5679 5680 5680 5680 5680 5680 5680 5680
5663 5664 5664 5665 5666 5667 5668 5668 5669 5669 5669 5669 5669 5669 5669 5669 5668 5668 5669 5669 5669 5669 5669 5669 5669 5669 5669 5668 5669 5669 5669 5669 5670 5671 5671 5672 5673 5673 5673 5674 5674 5673
5656 5656 5657 5658 5659 5660 5661 5661 5662 5662 5662 5662 5662 5663 5663 5663 5663 5663 5662 5662 5662 5663 5663 5663 5663 5662 5662 5662 5662 5662 5662 5662 5663 5663 5664 5665 5665 5665 5666 5666 5666 5666
5649 5649 5650 5651 5652 5653 5653 5654 5654 5654 5655 5655 5655 5656 5656 5656 5656 5656 5656 5656 5656 5656 5656 5656 5656 5656 5656 5656 5656 5655 5655 5655 5656 5656 5657 5657 5658 5658 5658 5658 5658 5658
5643 5643 5643 5644 5644 5645 5646 5646 5647 5647 5647 5648 5649 5649 5649 5649 5649 5648 5648 5648 5649 5649 5649 5649 5649 5649 5650 5650 5650 5650 5649 5649 5649 5649 5650 5650 5650 5650 5651 5651 5651 5651
5637 5637 5637 5637 5637 5638 5639 5639 5640 5640 5641 5641 5642 5642 5642 5642 5641 5641 5641 5642 5642 5642 5641 5642 5642 5642 5642 5642 5643 5643 5643 5643 5643 5643 5643 5643 5643 5643 5643 5643 5643 5643
Wind_Speed
27 27 22 18 14 13 15 17 19 20 20 19 18 17 17 17 17 16 15 14 13 12 11 11 11 11 11 12 12 12 12 13 14 15 16 16 17 18 18 19 19 20
26 25 24 22 18 15 15 16 18 20 20 19 19 18 17 17 17 16 16 15 14 13 13 12 12 12 12 12 12 12 12 13 13 13 14 14 15 15 16 17 17 18
22 20 18 16 15 14 15 17 20 21 21 20 20 19 18 17 16 16 16 16 15 15 15 14 14 13 13 12 12 11 12 12 13 13 13 13 13 14 14 15 16 16
20 18 15 12 13 13 13 17 20 22 22 21 20 19 18 17 16 16 16 17 17 16 16 15 15 15 14 14 13 12 12 12 12 13 14 14 14 14 14 14 15 15
19 20 17 14 13 12 13 15 19 21 22 21 20 19 19 19 18 18 17 17 16 16 15 15 15 15 15 14 14 14 13 13 13 14 14 15 15 15 15 15 15 15
17 17 16 14 13 13 13 15 17 20 21 20 20 19 19 19 19 18 17 16 14 14 14 14 14 15 15 15 15 15 15 14 14 15 15 15 16 16 16 16 16 17
15 16 16 17 16 15 15 15 15 18 20 20 19 20 20 19 18 17 16 14 13 13 13 12 12 13 14 15 16 16 16 15 15 15 15 15 16 16 16 17 17 18
15 18 19 19 18 17 17 16 15 17 19 18 19 20 20 18 18 18 18 17 15 15 16 15 14 13 14 15 16 17 17 17 16 16 16 16 16 16 17 18 18 19
18 20 21 20 19 17 18 19 19 20 20 20 20 21 23 24 23 22 22 22 20 19 20 20 19 17 17 17 16 17 17 18 18 18 17 18 18 19 19 20 21 21
18 19 20 19 17 15 17 19 19 21 22 23 23 22 24 27 27 25 25 27 26 24 23 24 24 24 23 22 20 19 18 18 18 18 18 18 19 20 22 23 23 23
18 17 17 17 16 15 14 15 17 19 20 22 23 22 23 24 25 25 25 26 27 27 26 26 26 26 26 25 23 21 20 20 20 20 20 19 19 20 22 23 23 22
20 18 17 17 18 19 19 19 20 21 21 22 22 22 21 21 23 24 24 24 23 23 24 24 24 25 24 23 23 22 21 22 22 23 22 20 19 19 20 20 20 21
23 22 22 21 21 21 22 23 23 24 24 24 22 22 22 21 21 22 24 25 23 22 22 22 23 24 24 23 24 24 23 23 24 25 24 23 21 20 20 20 20 21
26 25 25 25 24 23 24 24 22 22 22 21 22 25 27 26 25 25 25 26 25 24 24 23 23 24 25 25 26 26 26 26 27 28 28 27 27 26 26 26 26 26
29 28 28 27 26 26 27 26 23 23 25 27 29 31 31 30 30 30 31 31 31 32 31 30 28 28 28 29 29 29 29 30 31 32 32 32 32 32 31 31 31 31
34 33 32 32 31 31 32 32 31 31 33 33 34 34 33 32 33 34 35 37 38 39 38 35 32 32 33 33 33 33 33 34 34 35 35 36 35 35 34 34 34 33
39 38 37 36 36 36 36 35 35 35 35 35 34 33 33 33 34 36 38 39 40 40 39 37 36 36 36 36 36 37 37 37 38 38 38 38 38 38 37 37 36 36
42 41 41 40 40 39 38 37 37 37 37 37 37 36 36 37 38 38 39 39 40 39 38 38 38 37 37 38 38 39 39 40 40 40 40 40 40 41 41 41 40 40
43 42 43 42 42 40 39 39 39 39 40 40 40 40 41 40 40 39 39 39 39 39 38 38 39 39 39 39 39 39 40 40 41 41 41 42 42 42 43 43 43 43
44 43 43 43 42 41 40 40 41 41 42 42 43 43 43 42 41 40 39 39 40 40 41 41 42 43 43 43 42 42 42 42 42 41 41 42 42 43 44 45 45 45
46 45 45 44 44 43 42 43 43 43 44 44 44 44 44 43 43 42 42 42 42 43 43 44 45 45 45 46 46 46 46 45 44 43 43 42 42 42 43 44 45 46
47 47 47 47 47 47 46 47 47 47 47 47 47 47 46 46 45 44 44 44 45 45 46 46 47 47 47 48 48 48 48 48 47 46 45 44 44 43 43 43 44 44
46 47 48 49 50 50 50 50 50 50 50 49 49 49 48 48 48 47 48 48 48 48 48 48 49 49 50 50 50 50 50 49 49 48 47 46 45 45 44 44 44 44
45 46 47 48 49 50 51 51 50 50 50 50 50 50 50 50 50 50 50 50 50 50 50 50 50 51 51 51 51 51 51 50 49 49 48 47 46 46 45 45 45 45
46 47 48 49 49 49 50 50 49 49 49 50 50 50 51 51 52 52 52 51 51 51 52 52 52 53 52 52 52 51 51 50 49 49 48 48 47 47 46 46 46 46
50 50 52 53 53 52 52 51 51 51 51 52 52 53 53 53 53 52 52 51 51 52 53 53 53 53 53 52 52 51 50 49 48 48 48 47 47 47 47 46 46 46
Wind_Direction
287 295 287 265 264 282 280 275 281 287 287 285 285 285 285 284 282 279 277 276 273 268 264 261 259 258 259 262 266 269 272 273 274 275 275 275 275 273 272 271 269 268
287 292 288 273 265 275 279 277 283 287 287 283 281 281 282 281 281 280 279 278 276 274 271 268 264 261 260 260 262 266 271 275 276 276 277 278 279 279 279 277 275 274
288 293 289 273 266 273 276 277 281 285 288 285 279 278 278 278 279 278 277 277 276 276 274 272 270 266 263 261 261 265 270 276 279 280 280 279 279 280 282 281 280 279
281 290 291 276 273 280 281 280 281 282 286 284 279 277 277 276 275 274 275 275 275 275 274 271 269 267 266 265 263 264 266 270 276 279 281 282 281 279 280 280 281 281
284 292 293 281 275 278 282 285 282 280 282 283 278 275 276 275 275 275 276 278 279 277 274 271 269 267 267 267 267 266 266 267 270 274 278 281 282 283 282 281 280 279
289 291 290 284 280 279 282 287 283 278 279 283 280 276 276 278 279 279 280 280 277 273 271 271 271 270 269 268 268 268 269 270 272 275 278 281 284 286 287 287 286 284
290 291 291 287 282 279 279 281 280 274 276 282 279 275 275 277 280 283 283 279 274 269 268 268 269 270 271 270 269 268 267 268 270 272 275 279 282 284 286 288 289 288
297 299 299 294 286 279 274 273 272 268 271 274 271 268 271 274 280 282 278 274 275 275 274 272 268 267 272 275 273 270 267 266 267 269 271 272 274 276 280 282 284 285
295 297 298 296 290 281 275 275 273 266 265 267 265 265 270 275 277 278 275 271 271 272 273 273 269 267 272 277 275 273 270 268 267 268 269 270 271 273 274 276 277 278
287 288 289 289 287 283 280 279 273 265 264 266 265 265 270 274 275 276 278 275 269 266 267 269 270 270 273 274 273 271 269 268 267 266 268 271 273 275 276 274 273 272
290 287 285 284 285 287 285 278 270 267 268 268 266 265 269 273 273 275 279 276 269 265 265 268 271 272 274 276 276 272 266 265 267 269 271 273 276 280 280 275 270 268
296 292 291 289 286 282 280 279 275 271 270 267 263 264 269 273 272 272 274 272 268 266 267 269 270 270 273 278 281 278 274 272 272 271 272 273 278 285 286 279 272 270
296 293 292 291 288 282 280 283 279 273 271 268 264 266 273 276 273 270 269 267 266 268 268 269 270 271 273 277 279 279 281 283 282 278 274 272 275 281 285 282 277 276
294 292 291 290 289 284 282 282 277 271 270 269 268 271 274 273 272 272 269 265 265 267 270 274 276 276 277 277 277 279 281 283 283 281 279 277 276 277 280 281 281 280
290 288 287 287 286 281 279 277 271 266 268 270 273 276 275 272 271 272 270 268 269 272 276 279 278 277 277 277 276 277 278 279 279 279 280 280 280 280 279 280 280 280
285 283 282 282 282 279 278 276 273 271 274 277 279 279 277 276 275 273 271 270 271 273 276 278 277 276 277 277 277 277 277 277 278 278 279 280 280 280 279 279 278 277
282 281 280 280 281 282 280 278 277 278 280 282 282 279 277 278 277 276 273 272 271 272 275 277 278 278 277 277 276 276 275 275 275 276 277 278 278 278 277 277 276 275
280 280 280 280 281 282 280 278 277 279 280 280 278 276 275 276 277 277 276 276 276 276 277 278 278 278 277 277 276 275 274 274 274 274 274 274 274 275 275 275 275 274
277 278 278 279 279 278 276 274 275 277 279 279 278 276 276 277 278 278 278 278 278 279 278 279 279 279 279 278 277 276 275 274 274 273 273 272 272 271 271 272 272 272
273 274 274 274 273 272 270 270 273 276 278 279 278 278 278 278 279 280 280 279 279 279 280 281 282 282 282 282 281 280 279 277 275 273 272 271 270 269 268 268 268 268
270 269 269 269 269 268 268 270 272 275 277 277 277 277 277 278 279 281 281 280 280 280 280 281 282 282 283 283 283 283 282 281 279 276 274 272 271 269 268 267 267 267
268 267 267 268 268 268 269 271 273 274 274 274 274 274 274 276 277 278 279 279 279 279 279 280 281 281 281 282 282 283 282 281 280 279 278 276 275 273 272 270 269 268
268 268 268 268 269 269 270 271 272 272 272 272 271 271 272 274 275 276 277 277 277 277 277 278 279 280 281 281 282 282 281 280 279 278 278 277 276 276 275 274 273 272
269 270 270 270 270 270 269 270 271 271 271 271 271 272 273 274 275 277 278 277 276 276 276 276 277 278 278 279 280 280 280 279 279 278 278 277 277 276 275 275 275 274
267 269 270 269 269 269 270 269 269 269 269 270 271 273 274 275 276 277 278 277 277 276 276 276 276 276 277 277 277 277 277 277 278 278 277 277 277 277 276 276 275 275
264 266 266 267 266 267 268 268 267 268 268 269 271 272 273 274 275 276 276 277 277 277 277 277 277 277 277 277 276 276 275 275 276 276 276 277 277 277 277 277 276 276